Location: Daerah Kuala Lumpur
(3.1167°N, 101.6833°E)
Time: 16:54:25
(UTC+00:00)

SME Rocket - Pass Details

Date: 05 August 2024
Orbit: 550 x 2642 km, 99.9° (Epoch: 18 September)

Event Time Altitude Azimuth Distance (km) Brightness Sun altitude
Rises 22:20:27 0° 358° (N) 3,596 7.2 -13.1°
Reaches altitude 10° 22:23:26 10° 348° (NNW) 2,390 6.1 -12.4°
Maximum altitude 22:27:44 29° 288° (WNW) 1,194 4.1 -11.4°
Enters shadow 22:30:50 12° 230° (SW) 1,772 4.8 -10.7°
